[x]

[x]Search on:

Active filters:

Sort by:

Limit age

Size

Categories

Number of reports

Filters

Save search as filter

[x]Disable

Selected NZB download methode doesn't support sidepanel

Quick Links

Filters

Maintenance

Cat. Title # Genre Sender Date Size NZB
FLACRaffaele La Ragione Mandoline. Dans les salons fin-de-siècle 2026 24-96 5ClassicalSapperDeFlap28/06/2026, 09:491.06 GBNZB
FLACRachmaninoff Transcriptions Marek Kozak 2026 24-192 2ClassicalSapperDeFlap28/06/2026, 09:462.05 GBNZB
FLACPresumed Beethoven Six String Quartets Quartetto Alla Maniera Italiana 24-96 3ClassicalSapperDeFlap28/06/2026, 09:431.95 GBNZB
PDFFrankfurter Allgemeine Sonntags Zeitung - 28 Juni 2026 1Newspaperschoen28/06/2026, 09:4116.52 MBNZB
FLACLord Gallaways Delight Excellent Collection of Dances Gaelic Laments 2013 24-96 2ClassicalSapperDeFlap28/06/2026, 09:401.42 GBNZB
FLACLocatelli Complete Edition Brilliant 2015 21cd 3ClassicalSapperDeFlap28/06/2026, 09:337.39 GBNZB
FLACLe Chevalier de Saint-George Portrai Theotime Langlois de Swartet 2026 24-96 4ClassicalSapperDeFlap28/06/2026, 09:301.93 GBNZB
PDFMusic Connection 07.2026 0Magazineschoen28/06/2026, 09:2911.05 MBNZB
MP3Giovanni Antonini Haydn 2032 Vol. 18 Il maestro di scuola 2025 mp3@320 2ClassicalSapperDeFlap28/06/2026, 09:28203.62 MBNZB
FLACBrahms Trio Op 114 Robert Clara Schumann Romances 2026 24-96 3ClassicalSapperDeFlap28/06/2026, 09:251.33 GBNZB
PDFArmy Aviation 03.31.2026 1Magazineschoen28/06/2026, 09:2413.96 MBNZB
x264HDUFC Fight Night 280 Fiziev Vs Torres 1080p WEB-DL H264-FBB 11TelevisionSpekLap28/06/2026, 09:2413.27 GBNZB*
x264HDUFC Fight Night 280 Fiziev Vs Torres Prelims 1080p WEB-DL H264-FBB 8TelevisionSpekLap28/06/2026, 09:2312.62 GBNZB*
MP3Brahms Piano Quartets Eastman Quartet 1991 mp3@320 1ClassicalSapperDeFlap28/06/2026, 09:22355.31 MBNZB
MP3Bernard Haitink LPO Complete Decca Philips 31CD 2026 mp3@320 2ClassicalSapperDeFlap28/06/2026, 09:205.37 GBNZB
PDFArmy Aviation 04.05 2026 1Magazineschoen28/06/2026, 09:2034.41 MBNZB
TUXUbuntu 26.04 LTS 10System softwareMoerSa28/06/2026, 09:176.68 GBNZB*
PDFAerospace Testing International 06.2026 1Hobbyschoen28/06/2026, 09:1517.09 MBNZB
FLACAlon Sariel Plucked Bach III 2026 24-48 3ClassicalSapperDeFlap28/06/2026, 09:15880.89 MBNZB
PDFModern Railways 07.2026 2Magazineschoen28/06/2026, 09:11125.67 MBNZB
PDFAncient History I60 2026 3Magazineschoen28/06/2026, 09:0623.4 MBNZB
PDFAmateur Photographer - 30 June 2026 5Magazineschoen28/06/2026, 08:5522.61 MBNZB
PDFAmerican Fine Art - Issue 88, July-August 2026 1Magazineschoen28/06/2026, 08:5227.68 MBNZB
PDFWestern Art Collector - Issue 227, July 2026 0Magazineschoen28/06/2026, 08:4834.12 MBNZB
x264HDDisclosure Day 2026 WEB H 264-GP-M-NLsubs 18ActionWGPNZBPosterGroep28/06/2026, 08:451.54 GBNZB*
x264HDDisclosure Day 2026 WEB H 264-GP-M-NLsubs 0ActionWGPNZBPosterGroep28/06/2026, 08:441.54 GBNZB
PDFAmerican Art Collector - Issue 249, July 2026 1Magazineschoen28/06/2026, 08:4324.97 MBNZB
PDFTabletop Gaming - Issue 116, July 2026 0Magazineschoen28/06/2026, 08:3834.1 MBNZB
DivXFrolicMe - Calita Fire Herbal Bath 0HeteroClubNZB28/06/2026, 08:292.06 GBNZB
DivXEvilAngel - Nico Luva 0HeteroClubNZB28/06/2026, 08:294.64 GBNZB
DivXDesiBang - Chubby Indian Wife Fucks 0HeteroClubNZB28/06/2026, 08:292.13 GBNZB*
DivXCosmid - Vivian Rose 0HeteroClubNZB28/06/2026, 08:28681.5 MBNZB
DivXBrazzersExxtra - Tokyo Leigh Stretched Out And Oiled Up 0HeteroClubNZB28/06/2026, 08:282.63 GBNZB
DivXAuntJudys - Lada 1HeteroClubNZB28/06/2026, 08:28958 MBNZB*
DivX18Lust - Violet aka Violeta Cum Face 0HeteroClubNZB28/06/2026, 08:281.16 GBNZB
DivXVivThomas - Roni And Simon Pink Pleasure 1LesbianClubNZB28/06/2026, 08:276.65 GBNZB*
DivXTiny4K - Kylie Quinn Poolside Tease 0HeteroClubNZB28/06/2026, 08:277.3 GBNZB*
DivXStunning18 - Mara I Love Blue Color 0HeteroClubNZB28/06/2026, 08:27268.49 MBNZB
x264HD1Formula3 2026 Austrian Grand Prix 1080p WEB h264-BILLIE 3TelevisionWsolem28/06/2026, 08:163.1 GBNZB
x264HDNubiles - Ginger Emma Wild Darling 2160p 0SoloKenji28/06/2026, 08:146.63 GBNZB
x264HDNubiles - Ginger Emma Wild Darling 1080p 1SoloKenji28/06/2026, 08:142.58 GBNZB
x264HDNubiles - Angelica Synn Split Thighs 2160p 0SoloKenji28/06/2026, 08:143.01 GBNZB
x264HDNubiles - Lady Monroe Plaid Minx 2160p 0SoloKenji28/06/2026, 08:131.51 GBNZB
x264HDNubiles - Lady Monroe Plaid Minx 1080p 0SoloKenji28/06/2026, 08:13714.72 MBNZB
x264HDNubiles - Lady Monroe Cherry Tease 2160p 0SoloKenji28/06/2026, 08:131.48 GBNZB
x264HDNubiles - Lady Monroe Cherry Tease 1080p 0SoloKenji28/06/2026, 08:13700.21 MBNZB
x264HDNubiles - Angelica Synn Sheer Back 2160p 0SoloKenji28/06/2026, 08:133.42 GBNZB
x264HDNubiles - Angelica Synn Sheer Back 1080p 0SoloKenji28/06/2026, 08:131.85 GBNZB
x264HDNubiles - Lady Monroe Teasing Blue 2160p 0SoloKenji28/06/2026, 08:131.31 GBNZB
x264HDNubiles - Lady Monroe Teasing Blue 1080p 0SoloKenji28/06/2026, 08:13619.45 MBNZB
x264HDNubiles - Lady Monroe Tight Pink 2160p 0SoloKenji28/06/2026, 08:131.35 GBNZB
x264HDNubiles - Angelica Synn Floral Bust 2160p 0SoloKenji28/06/2026, 08:132.7 GBNZB
x264HDNubiles - Angelica Synn Floral Bust 1080p 0SoloKenji28/06/2026, 08:131.38 GBNZB
x264HDNubiles - Jesie Rose Barefoot Flirt 2160p 0SoloKenji28/06/2026, 08:135.23 GBNZB
x264HDNubiles - Jesie Rose Barefoot Flirt 1080p 0SoloKenji28/06/2026, 08:131.94 GBNZB
x264HDNubiles - Ginger Emma Bed Invite 2160p 0SoloKenji28/06/2026, 08:134.96 GBNZB
x264HDNubiles - Ginger Emma Bed Invite 1080p 1SoloKenji28/06/2026, 08:131.88 GBNZB
x264HDNubiles - Agnesa Si Give Me Some 2160p 0SoloKenji28/06/2026, 08:122.41 GBNZB
x264HDNubiles - Agnesa Si Give Me Some 1080p 0SoloKenji28/06/2026, 08:121.1 GBNZB
x264HDNubiles - Mini Mitzi Plaid Temptress 2160p 0SoloKenji28/06/2026, 08:123.74 GBNZB
x264HDNubiles - Mini Mitzi Plaid Temptress 1080p 0SoloKenji28/06/2026, 08:121.9 GBNZB
x264HDNubiles - Mini Mitzi Thong Temptation 2160p 0SoloKenji28/06/2026, 08:123.3 GBNZB
x264HDNubiles - Mini Mitzi Thong Temptation 1080p 0SoloKenji28/06/2026, 08:121.58 GBNZB
x264HDNubiles - Agnesa Si Top Shelf 2160p 0SoloKenji28/06/2026, 08:122.25 GBNZB
x264HDNubiles - Agnesa Si Top Shelf 1080p 0SoloKenji28/06/2026, 08:121.07 GBNZB
x264HDNubileFilms - Addison Vodka Best Laid Valentines Plans 2160p 0HeteroKenji28/06/2026, 08:123.91 GBNZB
x264HDNubileFilms - Addison Vodka Best Laid Valentines Plans 1080p 1HeteroKenji28/06/2026, 08:121.76 GBNZB
x264HDNubileFilms - Evie Christian An Old Spark Ignites 2160p 0HeteroKenji28/06/2026, 08:122.43 GBNZB
x264HDNubileFilms - Evie Christian An Old Spark Ignites 1080p 1HeteroKenji28/06/2026, 08:121.09 GBNZB
x264HDNubileFilms - Summer Kline February 2026 Fantasy Of The Month 2160p 0HeteroKenji28/06/2026, 08:124.34 GBNZB
x264HDNubileFilms - Summer Kline February 2026 Fantasy Of The Month 1080p 1HeteroKenji28/06/2026, 08:122.06 GBNZB
x264HDNookiesOriginals - Cheerleader Kait 2160p 0HeteroKenji28/06/2026, 08:124.05 GBNZB
x264HDNookiesOriginals - Tifa Quinn 2160p 0HeteroKenji28/06/2026, 08:112.64 GBNZB
x264HDNetVideoGirls - Vivienne 2160p 0HeteroKenji28/06/2026, 08:118.93 GBNZB
x264HDNetVideoGirls - Vivienne 1080p 0HeteroKenji28/06/2026, 08:114.41 GBNZB
x264HDNetGirl - Violet 2160p 0HeteroKenji28/06/2026, 08:116.8 GBNZB
x264HDNetGirl - Violet 1080p 0HeteroKenji28/06/2026, 08:113.39 GBNZB
x264HDNebraskaCoeds - Rosalina aka Rosalinda 1080p 0HeteroKenji28/06/2026, 08:112.11 GBNZB
x264HDNebraskaCoeds - Adele 1080p 0HeteroKenji28/06/2026, 08:112.02 GBNZB
x264HDNebraskaCoeds - Mira D 1080p 0HeteroKenji28/06/2026, 08:112.04 GBNZB
x264HDNebraskaCoeds - Abbie Storm aka Dora 1080p 0HeteroKenji28/06/2026, 08:111.97 GBNZB
x264HDMylfSingles - Skylar Snow And Alexa Chains 1080p 0HeteroKenji28/06/2026, 08:11906.09 MBNZB
x264HDMylfSingles - Ameena Green Andie Anderson And Alina Voss 1080p 0HeteroKenji28/06/2026, 08:11770.65 MBNZB
x264HD1The Conjuring Last Rites 2025 MULTi HDR DV 2160p WEB x265-FW 1HorrorBart28/06/2026, 06:4515.98 GBNZB
x264HDIp Man Kung Fu Legend 2026 UHD BluRay 2160p HEVC Atmos TrueHD7 1-MTeam 10ActionBart28/06/2026, 06:4555.57 GBNZB
ePubTurley, Jonathan - Rage And The Republic, Het Onvoltooide Verhaal Van De Amerikaanse Revolutie 14DramaRoodkapje28/06/2026, 06:2763.04 MBNZB
ePubTuchman, Barbara W. - The First Salute, Een Blik Op De Amerikaanse Revolutie 12DramaRoodkapje28/06/2026, 06:268.3 MBNZB
ePubTerkel, Studs - Jazz Giganten 14DramaRoodkapje28/06/2026, 06:253.25 MBNZB
ePubSabel, Bernhard A. - Fake-Mafia In De Wetenschap 13DramaRoodkapje28/06/2026, 06:244.96 MBNZB
DivXColpo Grosso in Porno Street 5HeteroRickP28/06/2026, 06:23881.99 MBNZB
ePubMcwilliams, David - Money 9DramaRoodkapje28/06/2026, 06:236.58 MBNZB
ePubKraus, Sebastian - Demyansk 1942 13DramaRoodkapje28/06/2026, 06:2212.49 MBNZB
ePubHermann, Rainer - De Verwoesting Van Het Midden-Oosten 14WarRoodkapje28/06/2026, 06:215.05 MBNZB
DivXThe Hotwife Life 6 2HeteroRickP28/06/2026, 06:213.43 GBNZB
ePubBeike, Sven - Microsoft Copilot 22DramaRoodkapje28/06/2026, 06:201.58 MBNZB
x264HDSupergirl 2026 1080p TS X 264-GP-M-NLsubs 25ActionWGPNZBPosterGroep28/06/2026, 05:427.01 GBNZB
x264HDFinding Emily 2026 1080p WEBRip x265 AAC5 1-GP-M-NLsubs 14ComedyWGPNZBPosterGroep28/06/2026, 05:402 GBNZB
x264HDFinding Emily 2026 1080p AMZN WEB-DL DDP5 1 Atmos H 264-GP-M-NLsubs 17ComedyWGPNZBPosterGroep28/06/2026, 05:287.45 GBNZB
x264HDFinding Emily (2026) 1080p WEB-DL AAC DDP5.1 X264 NL SUBS 7ComedyRappie28/06/2026, 03:222.46 GBNZB
x264HDFinding Emily (2026) 1080p AMZN WEB-DL DDP5.1 Atmos H264 NL SUBS 2ComedyRappie28/06/2026, 03:088.19 GBNZB
MP3Slam WeekendMix 202605-06 0Danceweekendmixes28/06/2026, 02:272.5 GBNZB*
DivXRealityJunkies - Katie Kush Cock Hungy Babysitter 0HeteroClubNZB28/06/2026, 00:381.16 GBNZB*
DivXPrimeLesbian - Shrima Malati And Anna Grandy 0LesbianClubNZB28/06/2026, 00:387.42 GBNZB
DivXOnlyTarts - Remido Sauna Rules 0HeteroClubNZB28/06/2026, 00:387.89 GBNZB
DivXNympho - Chloe Foxxe 0HeteroClubNZB28/06/2026, 00:377.17 GBNZB*
DivXMYLFSeeker - Kelly Caprice Since You Became My Stepmom 0HeteroClubNZB28/06/2026, 00:373.18 GBNZB*
DivXGrandMams - Andrea Wet 1HeteroClubNZB28/06/2026, 00:371.05 GBNZB
DivXHuCows - Kerry Prisoner Milking Program 0HeteroClubNZB28/06/2026, 00:361020.31 MBNZB
DivXInterracialVision - Gina Delight 0HeteroClubNZB28/06/2026, 00:362.31 GBNZB*
DivXJOIBabes - Micha Liz 0HeteroClubNZB28/06/2026, 00:361.24 GBNZB
DivXLove To Watch Vol 4 1HeteroClubNZB28/06/2026, 00:353.43 GBNZB
DivXLa belle mere la plus chaude sur la compilation de beau fils de tous les temps avec rachael cavalli 1HeteroMasha28/06/2026, 00:13118.55 MBNZB
DivX1Une compilation de certaines de nos meilleures scènes de FOOTJOB avec Charlie Dean, Darcia Lee, Kristof Cale, Kaisa Nord, Ben, 1HeteroMasha28/06/2026, 00:10194.5 MBNZB*
DivXLe premier plan à trois de Stepson avec se belles-mères 1HeteroMasha28/06/2026, 00:0662.24 MBNZB*
x264HDTeds Qualifying Notebook - Austrian Grand Prix 2026 - MKSG Rides (1080p, h264) 3TelevisionSimplyLovely27/06/2026, 23:06893.75 MBNZB
WINFIA European Truck Racing Championship 3SimulationHoodlum27/06/2026, 22:509.9 GBNZB
x264HDWWE Night of Champions 2026 Post Show 1080p WEB H265-XWT 4TelevisionSenua27/06/2026, 22:041.94 GBNZB
x264HDWWE Night of Champions 2026 1080p WEB H265-XWT 8TelevisionSenua27/06/2026, 22:048.38 GBNZB
x264HDCriminal Record (2026) Seizoen 02 - 1080p WEB-DL DDP5 1 Atmos H 264 (Retail NLsub) 39TelevisionWSavales27/06/2026, 21:5426.13 GBNZB
x264HD1Kloostergasten S05E03 Ozcan Akyol 2TelevisionWsolem27/06/2026, 20:57929.58 MBNZB
MP3The Tangent Verzameling MP3 12Eggbert27/06/2026, 20:413.57 GBNZB
FLACMuse - The Wow! Signal [2026] [Hi-Res FLAC-24Bit] 26RockWolkewietje27/06/2026, 20:26627.97 MBNZB
MPGSuperGirl HD Rip WEbrip TS 60fps Voor Iets Vloeiender Beeld 17Science FictionSmokingJoe27/06/2026, 20:257.79 GBNZB*
WINAdobe After Effects 2026 (v26.2.1.2) Multilingual 4AudioAdobeAfterEffects27/06/2026, 20:125.59 GBNZB*
x264HD1De Bondgenoten S03E210 2026 2TelevisionWsolem27/06/2026, 19:421.52 GBNZB
HD OthThe Sheep Detectives 2026 10Wsander27/06/2026, 19:3813.94 GBNZB
x264HD1De Oranjezomer S06E23 2026 9TelevisionWsolem27/06/2026, 19:371.87 GBNZB
x264HD1Formule1 2026 Oostenrijk Grand Prix Kwalificatie DUTCH 1080p WEB h264-ADRENALiNE 12TelevisionWsolem27/06/2026, 19:273.94 GBNZB
x264HD1Met Vier In Bed S14E01-E04 2026 7TelevisionWsolem27/06/2026, 19:246.21 GBNZB
x264HDMylfOfTheMonth - Cami Strella 1080p 0HeteroKenji27/06/2026, 19:161.01 GBNZB
x264HDMySistersHotFriend - Gypsy Rose 2160p 0HeteroKenji27/06/2026, 19:166.39 GBNZB
x264HDMySistersHotFriend - Gypsy Rose 1080p 0HeteroKenji27/06/2026, 19:163.06 GBNZB
x264HDMyPervyFamily - Vivian Taylor College Stepdaughter Likes Older Guys 2160p 0HeteroKenji27/06/2026, 19:164.4 GBNZB
x264HDMyPervyFamily - Vivian Taylor College Stepdaughter Likes Older Guys 1080p 1HeteroKenji27/06/2026, 19:162.12 GBNZB
x264HDMyPervyFamily - Whitney Wright Cmon Its Only Feet Pics 2160p 0HeteroKenji27/06/2026, 19:165.12 GBNZB
x264HDMyPervyFamily - Whitney Wright Cmon Its Only Feet Pics 1080p 1HeteroKenji27/06/2026, 19:161.96 GBNZB
x264HDMyMilfz - Megan Clara Curvy MILF Megan Rides Fat Black Cock 1080p 0HeteroKenji27/06/2026, 19:162.47 GBNZB
x264HDMyLifeInMiami - Lily Jordan Is Back 2160p 0HeteroKenji27/06/2026, 19:162.06 GBNZB
x264HDMyLifeInMiami - Lily Jordan Is Back 1080p 0HeteroKenji27/06/2026, 19:16832.77 MBNZB
x264HDMyFriendsHotMom - Bella Bare And Taylor Upton 2160p 0HeteroKenji27/06/2026, 19:166.74 GBNZB
x264HDMyFriendsHotMom - Bella Bare And Taylor Upton 1080p 0HeteroKenji27/06/2026, 19:163.2 GBNZB
x264HDMyFirst - Alina Voss First Anal 1080p 1HeteroKenji27/06/2026, 19:16767.75 MBNZB
x264HDMyDirtyUncle - Archer Ali 1080p 0HeteroKenji27/06/2026, 19:161.21 GBNZB
x264HDMyDirtyMaid - Yasmina Khan 2160p 0HeteroKenji27/06/2026, 19:1512.55 GBNZB
x264HDMyDirtyMaid - Yasmina Khan 1080p 0HeteroKenji27/06/2026, 19:153.55 GBNZB
x264HDMrXes - McKenna Lynn 20yo Submissive Russian Blonde People Pleaser 1080p 0HeteroKenji27/06/2026, 19:151.68 GBNZB
x264HDMorePOV - Karina King And Angelika Grays MILF Threesome Perfection 2160p 0HeteroKenji27/06/2026, 19:1514.89 GBNZB
x264HDMorePOV - Karina King And Angelika Grays MILF Threesome Perfection 1080p 0HeteroKenji27/06/2026, 19:151.16 GBNZB
x264HDMonstersOfCock - Kwini Kim 2160p 0HeteroKenji27/06/2026, 19:158.53 GBNZB
x264HDMonstersOfCock - Kwini Kim 1080p 1HeteroKenji27/06/2026, 19:152.69 GBNZB
x264HDMommysBoy - Aderes Quin 2160p 0HeteroKenji27/06/2026, 19:154.35 GBNZB
x264HDMommysBoy - Aderes Quin 1080p 1HeteroKenji27/06/2026, 19:151.1 GBNZB
x264HDMommyBlowsBest - Rebel Rhyder 1080p 0HeteroKenji27/06/2026, 19:15646.44 MBNZB
x264HDMomXXX - Olivia Sparkle And Diana Lawrence 1080p 0HeteroKenji27/06/2026, 19:151.77 GBNZB
x264HDMomIsHorny - Izi Blu 2160p 0HeteroKenji27/06/2026, 19:158.4 GBNZB
x264HDMomIsHorny - Izi Blu 1080p 0HeteroKenji27/06/2026, 19:152.72 GBNZB
x264HDMilfy - Penny Barber Rissa May Seductive MILF Penny Shares A Cock With Rissa 2160p 0HeteroKenji27/06/2026, 19:156.95 GBNZB
x264HDMilfy - Penny Barber Rissa May Seductive MILF Penny Shares A Cock With Rissa 1080p 0HeteroKenji27/06/2026, 19:143.43 GBNZB
x264HDMilfy - Penny Barber Rissa May Seductive MILF Penny Shares A Cock With Rissa 720p 0HeteroKenji27/06/2026, 19:142.3 GBNZB
x264HDMetArtX - Jade Bedroom Invitation 2 2160p 0SoloKenji27/06/2026, 19:143.61 GBNZB
x264HDMetArtX - Jade Bedroom Invitation 2 1080p 0SoloKenji27/06/2026, 19:14538.85 MBNZB
x264HDMetArtX - Shelena Im All At Sea 2 1080p 0SoloKenji27/06/2026, 19:14431.05 MBNZB
x264HDMetArtX - Victoria Mur Flirty Glance 2 2160p 0SoloKenji27/06/2026, 19:143.92 GBNZB
x264HDMetArtX - Victoria Mur Flirty Glance 2 1080p 0SoloKenji27/06/2026, 19:14812.27 MBNZB
x264HDMetArtX - Una Final Drip 2 2160p 0SoloKenji27/06/2026, 19:144.63 GBNZB
x264HDMetArtX - Una Final Drip 2 1080p 0SoloKenji27/06/2026, 19:14682.63 MBNZB
x264HDMetArt - Danna Bliss Backstages XXX REPACK 2160p 0SoloKenji27/06/2026, 19:143.88 GBNZB
x264HDMetArt - Liby Nicole Unbuttoning The Day 2 2160p 0SoloKenji27/06/2026, 19:144.12 GBNZB
x264HDMetArt - Liby Nicole Unbuttoning The Day 2 1080p 0SoloKenji27/06/2026, 19:14612.58 MBNZB
x264HDMetArt - Savanna Rose And Elly Clutch Naughty Strokes 2 2160p 1SoloKenji27/06/2026, 19:143.21 GBNZB
x264HDMetArt - Savanna Rose And Elly Clutch Naughty Strokes 2 1080p 1SoloKenji27/06/2026, 19:14472.02 MBNZB
x264HDMetArt - Sirena Milano Red Lily 2160p 0SoloKenji27/06/2026, 19:144.25 GBNZB
x264HDMetArt - Sirena Milano Red Lily 1080p 0SoloKenji27/06/2026, 19:13556.69 MBNZB
x264HDMeidenVanHolland - Pixie Pink 1080p 1HeteroKenji27/06/2026, 19:13904.94 MBNZB
x264HD1B&B Zoekt Lief S05E01-E04 2026 30TelevisionWsolem27/06/2026, 19:044.23 GBNZB
x264HDAlone US season 8 (2021) 6TelevisionYavis27/06/2026, 18:4815.65 GBNZB
x264HD1Het Oranje Cafe S01E17 2026 2TelevisionWsolem27/06/2026, 18:282 GBNZB
PDFInterweave Knits Diverse jaartallen in totaal 22 bladen 3Magazineschoen27/06/2026, 18:261.05 GBNZB
x264HDAlone US season 7 (2020) 5TelevisionYavis27/06/2026, 18:2010.64 GBNZB*
x264HD1Ziggo Sport Race Cafe 26-06-2026 18TelevisionWsolem27/06/2026, 18:071.56 GBNZB
x264HDAlone US season 6 (2019) 6TelevisionYavis27/06/2026, 17:5613.79 GBNZB*
PDFReisewelt Alpen Magazin - Ausgabe 3 2026 5Magazineschoen27/06/2026, 17:2474.31 MBNZB
WINAdobe InDesign Download (Latest 2026) Pre-Activated 2AudioAdobeInDesign27/06/2026, 17:231.41 GBNZB
PDFCycling Weekly - 25 June 2026 1Magazineschoen27/06/2026, 17:1023.98 MBNZB
PDFNederlandse Tijdschriften Bundel Nr 24 - 2026 56MagazineWsolem27/06/2026, 17:062.64 GBNZB
PDFAutoZeit - Juli-August 2026 3Magazineschoen27/06/2026, 16:5754.85 MBNZB
PDFAutoZeit - Juli-August 2026 0Magazineschoen27/06/2026, 16:5754.85 MBNZB
UHDPrincess Mononoke 1997 2160p UHD Blu-ray Remux NL Subs 9AnimationTimey27/06/2026, 16:4289.95 GBNZB*
x264HD(ITV) The Lady (2026) Mini-serie - 1080p AMZN WEB-DL DDP2 0 H 264 (Retail NLsub) 32TelevisionWSavales27/06/2026, 16:1511.45 GBNZB
x264HDYellowstone.S01 20TelevisionTuinkabouterz27/06/2026, 16:1423.11 GBNZB
x264HD1Formula1 2026 Austrian Grand Prix Qualifying 1080p WEB h264-BILLIE 29TelevisionWsolem27/06/2026, 15:553.92 GBNZB
FLACTop 40 (alle noteringen 2026 van week 01 t/m week 26-206 in FLAC en MP3). 13CompilationJaantje27/06/2026, 15:463.79 GBNZB
x264HDWWE SmackDown 2026 06 26 1080p WEB h264-HEEL 5TelevisionSenua27/06/2026, 15:308.74 GBNZB
WAVNo Sweat 1-16 (1997-2002) 11RnBWPaaldanser27/06/2026, 15:0610.42 GBNZB
FLACEns. Ayres Extemporae - Erbarme dich 8ClassicalSapperDeFlap27/06/2026, 14:47402 KBNZB
WAVAmoc-Tropical Afro house 1Dancejeevee27/06/2026, 14:44595.47 MBNZB
FLACZelenka - Six Trio Sonatas, ZWV181 - Angel Luis Sanchez et al 2cd 4ClassicalSapperDeFlap27/06/2026, 14:43417 KBNZB
MPGRockband Boston In Het Giants Stadium 1979 13MusicSmokingJoe27/06/2026, 14:384.04 GBNZB*
FLACEns. Gamben Bochumer - Ah, Dear Heart - Consort of Viols 2ClassicalSapperDeFlap27/06/2026, 14:35398 KBNZB
FLACEns. Ombra e Luce - Modena 1665 - music for violin with theorbo 3ClassicalSapperDeFlap27/06/2026, 14:31403 KBNZB
FLACGesualdo - Madrigals Book 2 1594 - Longhini 1ClassicalSapperDeFlap27/06/2026, 14:26393 KBNZB
FLACAlbinoni - Trio Sonatas, Op. 1 - Parnassi Musici 3ClassicalSapperDeFlap27/06/2026, 14:23386 KBNZB
DTSDiverse Artiesten - Turn Up the Bass-Vol.15 in DTS-HD-*HRA. ( OV ) 2CompilationPURISTen27/06/2026, 14:222.03 GBNZB
x264HD1MotoGP 2026 Netherlands Sprint Race 1080p WEB h264-VERUM 15TelevisionWsolem27/06/2026, 14:212.77 GBNZB
x264HD1Moto2 2026 Netherlands Qualifying Two 1080p WEB h264-BILLIE 4TelevisionWsolem27/06/2026, 14:191.04 GBNZB
MPGRockband The Warning Live from Auditorio Nacional 3MusicSmokingJoe27/06/2026, 14:132.29 GBNZB
x264HDSecret Garden - A Night With Secret Garden (Celtic) - MKV & DVD5 5MusicLobster27/06/2026, 14:116.38 GBNZB
x264HD1Formula2 2026 Austrian Grand Prix Sprint Race 1080p WEB h264-BILLIE 2TelevisionWsolem27/06/2026, 14:113.15 GBNZB
FLACJohannes Schenk Suonate Per Violino E Violone O Cimbalo Op. 7 - Vol. 1&2 4ClassicalSapperDeFlap27/06/2026, 14:09438 KBNZB
MPGLive Action Space Battleship Yamato Bekend Van Manga Movies 17Science FictionSmokingJoe27/06/2026, 14:031.51 GBNZB
FLACLute - Cabinet des delices - French Lute Music of the 17th Century - Eduardo Eguez 4ClassicalSapperDeFlap27/06/2026, 13:59401 KBNZB
FLACDowland - The Sound Of Tears - Massimo Marchese, lute 11ClassicalSapperDeFlap27/06/2026, 13:53402 KBNZB
HD-DVDTuner 2026 23Wsander27/06/2026, 13:5213.57 GBNZB
x264HDThe Killings at Parrish Station (2026) Mini-serie - 1080p WEB-DL DDP5 1 H 264 (NLsub) 51TelevisionWSavales27/06/2026, 13:488.05 GBNZB
x264HDAlone US season 5 6TelevisionYavis27/06/2026, 13:4613.66 GBNZB*
PDFQst 07.2026 5Magazineschoen27/06/2026, 13:4532.43 MBNZB
x264HDSupergirl 2026 1080p TS X 264-GP-M-NLsubs 25ActionWGPNZBPosterGroep27/06/2026, 13:447.01 GBNZB
x264HDAlone US season 4 (2017) 5TelevisionYavis27/06/2026, 13:3514.29 GBNZB*
x264HDAlone US season 1 (2015) 7TelevisionYavis27/06/2026, 13:044.04 GBNZB*
MPGKiss Meets Scooby Doo Rock And Roll Mystery 3AnimationSmokingJoe27/06/2026, 12:563.24 GBNZB
x264HD1Moto2 2026 Netherlands Qualifying One 1080p WEB h264-BILLIE 3TelevisionWsolem27/06/2026, 12:521.07 GBNZB
x264HD1Moto3 2026 Netherlands Qualifying One 1080p WEB h264-BILLIE 3TelevisionWsolem27/06/2026, 12:49982.4 MBNZB
WINEuro Truck Simulator 2 (2012) v1.60.1.0 (ElAmigos release) 18SimulationMoerSa27/06/2026, 12:4818.59 GBNZB
x264HD1Moto3 2026 Netherlands Qualifying Two 1080p WEB h264-BILLIE 3TelevisionWsolem27/06/2026, 12:481.15 GBNZB
x264HDAlone US season 3 (2017) 7TelevisionYavis27/06/2026, 12:4413.59 GBNZB*
x264HD1Formula1 2026 Austrian Grand Prix Practice Three 1080p WEB h264-BILLIE 12TelevisionWsolem27/06/2026, 12:394.88 GBNZB
x264HDSavage House 2026 1080p AMZN WEB-DL DDP5 1 H 264-GP-M-NLsubs 21ComedyWGPNZBPosterGroep27/06/2026, 12:355.98 GBNZB
x264HDMeidenVanHolland - Jada Sparks 1080p 1HeteroKenji27/06/2026, 12:291.42 GBNZB
x264HDMature4K - Lily Kink 1080p 0HeteroKenji27/06/2026, 12:282.74 GBNZB
x264HDMassageRooms - Katy Rose And Luna Bunny 1080p 0HeteroKenji27/06/2026, 12:281.82 GBNZB
x264HDManyVids - Bad Bella Bellas First Gang Bang Valentines Edition 2160p 0HeteroKenji27/06/2026, 12:283.66 GBNZB
x264HDManyVids - Bad Bella Bellas First Gang Bang Valentines Edition 1080p 1HeteroKenji27/06/2026, 12:281002.57 MBNZB
x264HDManyVids - Bad Bella Bellas First Gang Bang Valentines Edition 720p 0HeteroKenji27/06/2026, 12:28654.97 MBNZB
x264HDManyVids - Miss Malorie Switch Delilah Cass Cheerleader Bestie Malorie Switch Shares Her Man 1080p 0HeteroKenji27/06/2026, 12:281.88 GBNZB
x264HDMYLKED - Cheerleader Kait 2160p 0HeteroKenji27/06/2026, 12:28674.46 MBNZB
x264HDMYLFSeeker - Chloe Adams Stepmom Gets Back At Peeping Leo 2160p 0HeteroKenji27/06/2026, 12:284.2 GBNZB
x264HDMYLFSeeker - Chloe Adams Stepmom Gets Back At Peeping Leo 1080p 0HeteroKenji27/06/2026, 12:281.68 GBNZB
x264HDLubed - Chastity Doll Shiny And Satisfied 2160p 0HeteroKenji27/06/2026, 12:285.09 GBNZB
x264HDLubed - Chastity Doll Shiny And Satisfied 1080p 0HeteroKenji27/06/2026, 12:281.75 GBNZB
x264HDLittleCaprice-Dreams - Jessy Ley SuperPrivatex 2160p 0HeteroKenji27/06/2026, 12:282.09 GBNZB
x264HDLittleCaprice-Dreams - Jessy Ley SuperPrivatex 1080p 0HeteroKenji27/06/2026, 12:28614.85 MBNZB
x264HDLittleCaprice-Dreams - Sofia Rivers SuperPrivatex 2160p 0HeteroKenji27/06/2026, 12:282.15 GBNZB
x264HDLittleCaprice-Dreams - Sofia Rivers SuperPrivatex 1080p 0HeteroKenji27/06/2026, 12:28695.99 MBNZB
x264HDLetsPostIt - Taylor Rae She Likes It Raw 1080p 0HeteroKenji27/06/2026, 12:274.14 GBNZB
x264HDLegalPorno - Shana Grimoire AH240 1080p 1HeteroKenji27/06/2026, 12:271.42 GBNZB
x264HDLegalPorno - Shana Grimoire AH240 720p 1HeteroKenji27/06/2026, 12:27983.81 MBNZB
x264HDLegalPorno - Samantha Reigns 1080p 0HeteroKenji27/06/2026, 12:271.3 GBNZB
x264HDLegalPorno - Samantha Reigns 720p 0HeteroKenji27/06/2026, 12:27239.34 MBNZB
x264HDLegalPorno - Mur Amoore 1080p 0HeteroKenji27/06/2026, 12:27461.77 MBNZB
x264HDLegalPorno - Mur Amoore 720p 0HeteroKenji27/06/2026, 12:27299.75 MBNZB